• In Uzbekistan
  • List of Countries
  • For 7 days
  • Water Temperature
  • Satellite Maps
  • Weather Map
  • Weather Widgets
  • user-avatar
    Login

    Hourly Weather Ondjiwa

    Today, 25 March, Saturday

    Time Temperature Precipitation Wind Pressure Humidity
    00:00 +24°C° 0.1 mm 1 mps 668 mmHg 74%
    01:00 +23°C° 0.1 mm 1 mps 667 mmHg 76%
    02:00 +23°C° 1.1 mm 1 mps 667 mmHg 79%
    03:00 +22°C° 1.1 mm 1 mps 667 mmHg 82%
    04:00 +22°C° 1.1 mm 1 mps 667 mmHg 86%
    05:00 +22°C° 0.2 mm 1 mps 667 mmHg 84%
    06:00 +23°C° 0.2 mm 1 mps 668 mmHg 82%
    07:00 +23°C° 0.2 mm 1 mps 668 mmHg 81%
    08:00 +25°C° 0 mm 1 mps 669 mmHg 72%
    09:00 +27°C° 0 mm 2 mps 669 mmHg 63%
    10:00 +29°C° 0 mm 2 mps 670 mmHg 54%
    11:00 +30°C° 0.1 mm 3 mps 669 mmHg 49%
    12:00 +31°C° 0.1 mm 3 mps 669 mmHg 44%
    13:00 +34°C° 0.1 mm 4 mps 669 mmHg 39%
    14:00 +33°C° 0.2 mm 4 mps 668 mmHg 43%
    15:00 +31°C° 0.2 mm 3 mps 667 mmHg 47%
    16:00 +30°C° 0.2 mm 3 mps 667 mmHg 51%
    17:00 +29°C° 0.1 mm 3 mps 667 mmHg 55%
    18:00 +28°C° 0.1 mm 2 mps 667 mmHg 60%
    19:00 +26°C° 0.1 mm 2 mps 667 mmHg 65%
    20:00 +26°C° 0 mm 2 mps 667 mmHg 66%
    21:00 +26°C° 0 mm 2 mps 668 mmHg 66%
    22:00 +25°C° 0 mm 2 mps 668 mmHg 67%
    23:00 +25°C° 0.6 mm 2 mps 668 mmHg 71%

    Tomorrow, 26 March, Sunday

    Time Temperature Precipitation Wind Pressure Humidity
    00:00 +24°C° 0.6 mm 2 mps 668 mmHg 75%
    01:00 +23°C° 0.6 mm 1 mps 667 mmHg 79%
    02:00 +23°C° 0.4 mm 1 mps 667 mmHg 80%
    03:00 +23°C° 0.4 mm 1 mps 667 mmHg 80%
    04:00 +23°C° 0.4 mm 1 mps 667 mmHg 81%
    05:00 +23°C° 0.6 mm 1 mps 667 mmHg 82%
    06:00 +23°C° 0.6 mm 1 mps 668 mmHg 83%
    07:00 +23°C° 0.6 mm 2 mps 668 mmHg 84%
    08:00 +25°C° 0.4 mm 2 mps 668 mmHg 74%
    09:00 +27°C° 0.4 mm 3 mps 669 mmHg 64%
    10:00 +29°C° 0.4 mm 4 mps 670 mmHg 54%
    11:00 +30°C° 0.1 mm 4 mps 669 mmHg 50%
    12:00 +32°C° 0.1 mm 4 mps 669 mmHg 46%
    13:00 +32°C° 0.1 mm 4 mps 668 mmHg 42%
    14:00 +32°C° 0.1 mm 4 mps 668 mmHg 43%
    15:00 +31°C° 0.1 mm 3 mps 667 mmHg 44%
    16:00 +31°C° 0.1 mm 3 mps 667 mmHg 45%
    17:00 +29°C° 0 mm 3 mps 667 mmHg 52%
    18:00 +28°C° 0 mm 2 mps 667 mmHg 58%
    19:00 +26°C° 0 mm 2 mps 667 mmHg 64%
    20:00 +25°C° 0.1 mm 2 mps 667 mmHg 67%
    21:00 +25°C° 0.1 mm 2 mps 668 mmHg 70%
    22:00 +24°C° 0.1 mm 2 mps 668 mmHg 72%
    23:00 +24°C° 0.3 mm 2 mps 668 mmHg 75%

    Day after tomorrow, 27 March, Monday

    Time Temperature Precipitation Wind Pressure Humidity
    00:00 +23°C° 0.3 mm 2 mps 667 mmHg 78%
    01:00 +23°C° 0.3 mm 2 mps 667 mmHg 81%
    02:00 +21°C° 0.1 mm 2 mps 667 mmHg 82%
    03:00 +21°C° 0.1 mm 2 mps 667 mmHg 84%
    04:00 +21°C° 0.1 mm 2 mps 666 mmHg 86%
    05:00 +21°C° 0 mm 2 mps 667 mmHg 85%
    06:00 +21°C° 0 mm 2 mps 668 mmHg 84%
    07:00 +21°C° 0 mm 2 mps 668 mmHg 83%
    08:00 +25°C° 0 mm 3 mps 669 mmHg 70%
    09:00 +27°C° 0 mm 3 mps 670 mmHg 58%
    10:00 +30°C° 0 mm 4 mps 670 mmHg 45%
    11:00 +32°C° 0 mm 4 mps 670 mmHg 41%
    12:00 +33°C° 0 mm 4 mps 669 mmHg 37%
    13:00 +34°C° 0 mm 4 mps 669 mmHg 32%
    14:00 +33°C° 0 mm 4 mps 668 mmHg 35%
    15:00 +33°C° 0 mm 3 mps 668 mmHg 37%
    16:00 +31°C° 0 mm 2 mps 667 mmHg 39%
    17:00 +30°C° 0.1 mm 2 mps 668 mmHg 43%
    18:00 +29°C° 0.1 mm 2 mps 668 mmHg 47%
    19:00 +27°C° 0.1 mm 2 mps 668 mmHg 51%
    20:00 +27°C° 0 mm 2 mps 668 mmHg 53%
    21:00 +26°C° 0 mm 2 mps 668 mmHg 55%
    22:00 +25°C° 0 mm 2 mps 669 mmHg 57%
    23:00 +25°C° 0 mm 2 mps 668 mmHg 60%

    28 March, Tuesday

    Time Temperature Precipitation Wind Pressure Humidity
    00:00 +24°C° 0 mm 1 mps 668 mmHg 62%
    01:00 +23°C° 0 mm 1 mps 668 mmHg 65%
    02:00 +23°C° 0 mm 1 mps 667 mmHg 66%
    03:00 +22°C° 0 mm 1 mps 667 mmHg 67%
    04:00 +22°C° 0 mm 1 mps 667 mmHg 68%
    05:00 +21°C° 0 mm 2 mps 668 mmHg 68%
    06:00 +21°C° 0 mm 2 mps 668 mmHg 68%
    07:00 +21°C° 0 mm 2 mps 669 mmHg 69%
    08:00 +25°C° 0 mm 3 mps 669 mmHg 56%
    09:00 +28°C° 0 mm 4 mps 670 mmHg 44%
    10:00 +30°C° 0 mm 6 mps 671 mmHg 32%
    11:00 +32°C° 0 mm 6 mps 670 mmHg 29%
    12:00 +33°C° 0 mm 6 mps 669 mmHg 27%
    13:00 +34°C° 0 mm 6 mps 669 mmHg 24%
    14:00 +34°C° 0 mm 5 mps 668 mmHg 25%
    15:00 +34°C° 0 mm 5 mps 668 mmHg 25%
    16:00 +34°C° 0 mm 5 mps 667 mmHg 26%
    17:00 +32°C° 0 mm 4 mps 667 mmHg 31%
    18:00 +29°C° 0 mm 3 mps 667 mmHg 37%
    19:00 +26°C° 0 mm 2 mps 667 mmHg 43%
    20:00 +26°C° 0 mm 2 mps 668 mmHg 44%
    21:00 +25°C° 0 mm 2 mps 668 mmHg 45%
    22:00 +25°C° 0 mm 2 mps 668 mmHg 46%
    23:00 +24°C° 0 mm 2 mps 668 mmHg 47%

    29 March, Wednesday

    Time Temperature Precipitation Wind Pressure Humidity
    00:00 +23°C° 0 mm 2 mps 668 mmHg 48%
    01:00 +23°C° 0 mm 2 mps 667 mmHg 49%
    02:00 +21°C° 0 mm 2 mps 667 mmHg 50%
    03:00 +21°C° 0 mm 2 mps 667 mmHg 51%
    04:00 +20°C° 0 mm 2 mps 667 mmHg 52%
    05:00 +20°C° 0 mm 2 mps 668 mmHg 53%
    06:00 +20°C° 0 mm 2 mps 668 mmHg 54%
    07:00 +20°C° 0 mm 2 mps 668 mmHg 54%
    08:00 +23°C° 0 mm 4 mps 669 mmHg 45%
    09:00 +28°C° 0 mm 5 mps 670 mmHg 36%
    10:00 +32°C° 0 mm 7 mps 670 mmHg 27%
    11:00 +33°C° 0 mm 7 mps 670 mmHg 25%
    12:00 +34°C° 0 mm 6 mps 669 mmHg 23%
    13:00 +35°C° 0 mm 6 mps 669 mmHg 22%
    14:00 +35°C° 0 mm 6 mps 668 mmHg 22%
    15:00 +35°C° 0 mm 5 mps 668 mmHg 22%
    16:00 +34°C° 0 mm 5 mps 668 mmHg 22%
    17:00 +32°C° 0 mm 4 mps 667 mmHg 27%
    18:00 +29°C° 0 mm 3 mps 667 mmHg 32%
    19:00 +26°C° 0 mm 2 mps 667 mmHg 38%
    20:00 +26°C° 0 mm 2 mps 668 mmHg 39%
    21:00 +25°C° 0 mm 2 mps 668 mmHg 41%
    22:00 +24°C° 0 mm 2 mps 668 mmHg 42%
    23:00 +24°C° 0 mm 2 mps 668 mmHg 44%

    30 March, Thursday

    Time Temperature Precipitation Wind Pressure Humidity
    00:00 +22°C° 0 mm 3 mps 668 mmHg 46%
    01:00 +21°C° 0 mm 3 mps 668 mmHg 48%
    02:00 +21°C° 0 mm 3 mps 668 mmHg 49%
    03:00 +20°C° 0 mm 2 mps 667 mmHg 50%
    04:00 +20°C° 0 mm 2 mps 667 mmHg 51%
    05:00 +20°C° 0 mm 3 mps 668 mmHg 51%
    06:00 +20°C° 0 mm 3 mps 668 mmHg 51%
    07:00 +20°C° 0 mm 3 mps 669 mmHg 51%
    08:00 +23°C° 0 mm 4 mps 670 mmHg 42%
    09:00 +27°C° 0 mm 6 mps 670 mmHg 33%
    10:00 +32°C° 0 mm 7 mps 671 mmHg 24%
    11:00 +33°C° 0 mm 7 mps 671 mmHg 22%
    12:00 +34°C° 0 mm 7 mps 670 mmHg 21%
    13:00 +35°C° 0 mm 7 mps 669 mmHg 19%
    14:00 +34°C° 0 mm 6 mps 669 mmHg 20%
    15:00 +34°C° 0 mm 6 mps 669 mmHg 20%
    16:00 +34°C° 0 mm 5 mps 668 mmHg 20%
    17:00 +32°C° 0 mm 4 mps 668 mmHg 25%
    18:00 +28°C° 0 mm 3 mps 668 mmHg 29%
    19:00 +26°C° 0 mm 2 mps 668 mmHg 33%
    20:00 +25°C° 0 mm 2 mps 668 mmHg 34%
    21:00 +24°C° 0 mm 2 mps 669 mmHg 36%
    22:00 +24°C° 0 mm 2 mps 669 mmHg 37%
    23:00 +23°C° 0 mm 2 mps 669 mmHg 38%
    Show more